COSMOS 1375 DEB, 17799

Orbit data source: Space-Track

COSMOS 1375 DEB, 17799 is space debris in LEO originally from a launch on Sun, 06 Jun 1982 UTC launched from the Plesetsk Missile And Space Complex (PKMTR). Debris objects in space refer to the collection of defunct objects orbiting the Earth. Examples of debris include non-operational satellites, rocket bodies, and fragments generated from explosions, collisions, or faulty payload assembly.

Loading next visibility...
Identifier
17799, 1982-055AR
Orbit
LEO
Country
Flag of CISCIS
Related business
Manufacturer
Unknown
Mission
Spacecraft
Bus & Motor
Unknown
Mass
Unknown
Launch date (UTC)
1982-06-06 (44 years ago)
Launch vehicle
Unknown
Launch site
Plesetsk Missile And Space Complex (PKMTR)
Object type
Payload
Rocket body
Debris
Shape & HBR
Unknown shape, 0.1 m
Radar Cross Section
Medium (>0.1 m² and <1 m²)

Expand to show TLE details & history
Last TLE update: 3 days ago

TLE from 3 days ago
0 COSMOS 1375 DEB
1 17799U 82055AR  26170.58341965  .00000305  00000-0  28255-3 0  9993
2 17799  65.8378 311.8250 0019042  15.1379  64.9856 13.96269144 60160
Epoch: 2026-06-19T14:00Z
TLE epoch observation values (Epoch: 2026-06-19T14:00:07.457Z)
Latitude
64.19394°
Longitude
-98.66063°
Altitude
911.045 km
Speed
7.406 km/s
True Right ascension
01h 16m 43s
True Declination
64° 03' 42"
Sunlit
Object was in daylight at epoch
Visualization orbit readout
Latitude
Unknown
Longitude
Unknown
Altitude
Unknown
Speed
Unknown
Apparent Right ascension
Unknown
Apparent Declination
Unknown
Sunlit
N/A
Visualization observer readout
Local Sidereal Time
06:45:25
Azimuth
Unknown
Elevation
Unknown
Doppler factor
Unknown
Orbital elements
Apogee altitude
919.113 km
Perigee altitude
891.375 km
Semi-major axis
7,283.381 km
Eccentricity
0.0019
Inclination
65.8378°
RAAN
311.825°
Arg. of periapsis
15.1379°
True anomaly
65.18354°
Mean anomaly
64.9856°
Eccentric anomaly
65.08455°
Mean motion
3.49175 °/min
Orbital period
103.1 mins
BSTAR
0.00028255
Loading maneuver chart data...
Computing Atmospheric mass density...
Loading historical data...
Loading historical data...
Loading historical data...
Loading historical data...
Loading historical data...
Loading historical data...
Loading historical data...

Documentation

Showing up to 5 results
|